Terminal Aerodrome Forecast
Issued by NWS

Home | Current Version | Previous Version | Text Only | Print | Product List | Glossary On
Versions: 1 2 3 4 5 6 7 8 9 10 11 12 13 14 15 16 17 18 19 20 21 22 23 24 25 26 27 28 29 30 31
000
FTAK31 PAFA 200520
TAFAUN
TAF
PAUN 200520Z 2006/2106 33018KT P6SM VCSH OVC050
     FM201300 31012KT P6SM -SHRA OVC025
     FM201600 29012KT P6SM OVC015
     FM202100 32014KT P6SM SCT050=

USA.gov is the U.S. government's official web portal to all federal, state and local government web resources and services.